Tiempo atmosférico en la estación meteorológica de Láujar De Andarax, Almería (1510 m.)



Fecha
DESCASC
Temp. máxima en grados centígrados (hora)
DESCASC
Temp. mínima en grados centígrados (hora)
DESCASC
Temp. media en grados centígrados
DESCASC
Racha de viento máxima en m/sg (hora)
DESCASC
Velocidad máxima media en intervalos de 10 minutos(hora)
DESCASC
Precipitaciones diarias en mm
DESCASC
Precipitaciones de 00:00 a 06:00 en mm
DESCASC
Precipitaciones de 06:00 a 12:00 en mm
DESCASC
Precipitaciones de 12:00 a 18:00 en mm
DESCASC
Precipitaciones de 18:00 a 24:00 en mm
DESCASC
08-12-2019 13.9 (15:10) 3.8 (02:30) 8.8 12.78 (20:30) 8.89 (22:30) 0 0 0 0 0
07-12-2019 11.5 (13:20) 3.2 (00:40) 7.4 6.11 (12:20) 4.17 (15:30) 0 0 0 0 0
06-12-2019 11.3 (16:00) 3.1 (22:10) 7.2 7.78 (03:20) 4.17 (08:10) 0 0 0 0 0
05-12-2019 8.5 (13:50) 2 (00:00) 5.3 7.78 (20:00) 3.61 (22:40) 0 0 0 0 0
04-12-2019 9.7 (12:30) 3.4 (00:00) 6.5 15 (10:00) 10.28 (05:40) 0 0 0 0 0
03-12-2019 5.1 (10:50) 2.9 (00:00) 4 11.39 (09:30) 5 (10:00) 17 7.4 7.2 2.4 0
02-12-2019 9.7 (14:50) 1.8 (00:00) 5.7 8.61 (21:40) 3.89 (00:40) 4.8 1 0 0.6 3.2
01-12-2019 11.8 (12:50) 3.8 (00:00) 7.8 11.67 (12:50) 8.61 (12:50) 0.2 0 0 0 0.2
30-11-2019 18.4 (14:00) 8.3 (00:00) 13.3 10.28 (16:50) 7.22 (17:10) 0 0 0 0 0
29-11-2019 18.7 (16:20) 10 (00:00) 14.4 8.61 (13:40) 6.39 (14:10) 0 0 0 0 0
28-11-2019 16.6 (15:30) 7.1 (00:00) 11.9 12.22 (04:20) 7.78 (04:20) 0 0 0 0 0
27-11-2019 15.7 (11:10) 7.8 (00:00) 11.8 9.72 (03:30) 6.11 (03:40) 0 0 0 0 0
26-11-2019 17.9 (12:20) 7.4 (00:00) 12.6 6.39 (04:50) 4.44 (04:50) 0 0 0 0 0
25-11-2019 17.4 (13:10) 9.4 (00:00) 13.4 18.61 (06:20) 13.06 (04:20) 0 0 0 0 0
24-11-2019 12.9 (15:00) 2.2 (00:00) 7.5 18.89 (10:40) 13.89 (10:40) 0 0 0 0 0
23-11-2019 7.3 (04:50) 2.6 (00:00) 5 32.78 (06:30) 20.28 (06:30) 0.4 0.2 0.2 0 0
22-11-2019 8.9 (21:50) 5.2 (00:00) 7 18.61 (18:20) 12.5 (20:50) 50.2 1.8 10.4 17.4 20.6
21-11-2019 5.8 (23:00) 1.5 (00:00) 3.7 14.17 (20:20) 8.61 (20:20) 16.2 0 0 1.8 14.4
20-11-2019 9 (12:50) 0.5 (00:00) 4.8 11.11 (23:30) 8.33 (14:20) 0 0 0 0 0
19-11-2019 8.2 (13:10) 0.7 (00:00) 4.4 8.33 (14:30) 5.28 (15:50) 0 0 0 0 0
18-11-2019 7.7 (12:50) 1.7 (00:00) 4.7 21.11 (10:20) 14.17 (19:20) 2.6 1.8 0.8 0 0
17-11-2019 9.8 (17:10) 2.5 (00:00) 6.2 15.83 (04:30) 12.22 (04:50) 0 0 0 0 0
16-11-2019 8.6 (13:30) -1 (-00:0) 3.8 15.28 (20:10) 11.94 (20:10) 0 0 0 0 0
15-11-2019 6.2 (14:40) -0.7 (-00:0) 2.7 23.33 (06:40) 16.11 (06:50) 0 0 0 0 0
14-11-2019 9.3 (09:50) 2.2 (00:00) 5.8 31.39 (16:40) 17.22 (16:40) 0 0 0 0 0
13-11-2019 15.1 (16:50) 7.5 (00:00) 11.3 25.83 (14:40) 17.78 (14:50) 0 0 0 0 0
12-11-2019 14.4 (13:50) 4.3 (00:00) 9.3 18.61 (02:10) 12.78 (02:40) 0 0 0 0 0
11-11-2019 8.9 (16:10) 0.4 (07:20) 4.6 22.22 (14:20) 15.83 (01:50) 0 0 0 0 0

Gráficas

Temp. máximas Temp. mínimas Temp. medias Precipitaciones Rachas de viento máximas Velocidades máximas media en intervalos de 10 minutos

Datos horarios

Fecha y hora oficial Temperatura (ºC) Velocidad del viento (km/h) Dirección del viento Racha (km/h) Dirección de racha Precipitación (mm) Presión (hPa) Tendencia (hPa) Humedad (%)
2019-12-10 23:00:00 -- -- -- -- -- -- -- -- --
2019-12-10 22:00:00 9.1 9 Norte 13 Norte 0 -- -- 21
2019-12-10 21:00:00 9 4 Nordeste 7 Nordeste 0 -- -- 30
2019-12-10 20:00:00 9.9 5 Este 7 Sudeste 0 -- -- 29
2019-12-10 19:00:00 9.5 0 Calma 6 Este 0 -- -- 30
2019-12-10 18:00:00 10.2 4 Norte 8 Noroeste 0 -- -- 42
2019-12-10 17:00:00 14.3 4 Oeste 13 Oeste 0 -- -- 32
2019-12-10 16:00:00 15.4 6 Oeste 17 Noroeste 0 -- -- 29
2019-12-10 15:00:00 16.4 9 Noroeste 16 Noroeste 0 -- -- 26
2019-12-10 14:00:00 15.4 7 Noroeste 20 Oeste 0 -- -- 23
2019-12-10 13:00:00 15.7 10 Oeste 17 Oeste 0 -- -- 20
2019-12-10 12:00:00 15.1 8 Oeste 14 Oeste 0 -- -- 14
2019-12-10 11:00:00 14.2 9 Noroeste 13 Noroeste 0 -- -- 18
2019-12-10 10:00:00 14.9 8 Noroeste 19 Norte 0 -- -- 17
2019-12-10 09:00:00 10.8 3 Nordeste 30 Norte 0 -- -- 16
2019-12-10 08:00:00 8 9 Norte 20 Norte 0 -- -- 17
2019-12-10 07:00:00 8.7 16 Norte 21 Norte 0 -- -- 21
2019-12-10 06:00:00 8.1 4 Nordeste 19 Norte 0 -- -- 21
2019-12-10 05:00:00 8.1 17 Norte 19 Norte 0 -- -- 33
2019-12-10 04:00:00 8.5 11 Norte 15 Norte 0 -- -- 24
2019-12-10 03:00:00 8.4 6 Nordeste 21 Norte 0 -- -- 17
2019-12-10 02:00:00 7.9 8 Norte 15 Norte 0 -- -- 28
2019-12-10 01:00:00 8.9 4 Norte 14 Oeste 0 -- -- 41
2019-12-10 00:00:00 10 4 Sudoeste 9 Sur 0 -- -- 13
2019-12-09 23:00:00 9.9 4 Este 32 Nordeste 0 -- -- 12
2019-12-09 22:00:00 10.3 5 Sudeste 33 Nordeste 0 -- -- 11
2019-12-09 21:00:00 10.5 8 Nordeste 41 Este 0 -- -- 8
2019-12-09 20:00:00 10.7 31 Nordeste 44 Nordeste 0 -- -- 10
2019-12-09 19:00:00 9.8 28 Nordeste 42 Nordeste 0 -- -- 11
2019-12-09 18:00:00 10.4 9 Este 23 Nordeste 0 -- -- 28
2019-12-09 17:00:00 12.3 13 Noroeste 22 Norte 0 -- -- 57
2019-12-09 16:00:00 15.7 17 Noroeste 24 Noroeste 0 -- -- 46
2019-12-09 15:00:00 15.2 16 Noroeste 27 Noroeste 0 -- -- 44
2019-12-09 14:00:00 15.1 15 Noroeste 24 Noroeste 0 -- -- 40
2019-12-09 13:00:00 14.7 13 Oeste 21 Noroeste 0 -- -- 42
2019-12-09 12:00:00 15.3 8 Noroeste 15 Oeste 0 -- -- 38
2019-12-09 11:00:00 13.4 6 Oeste 10 Oeste 0 -- -- 42
2019-12-09 10:00:00 13.7 3 Oeste 21 Sudeste 0 -- -- 36
2019-12-09 09:00:00 9.7 6 Nordeste 21 Sur 0 -- -- 58
2019-12-09 08:00:00 8.8 9 Sudeste 22 Sudeste 0 -- -- 65
2019-12-09 07:00:00 8 4 Noroeste 15 Sudoeste 0 -- -- 75
2019-12-09 06:00:00 7.7 8 Sur 19 Sudoeste 0 -- -- 79
2019-12-09 05:00:00 8 7 Sur 27 Sudoeste 0 -- -- 75
2019-12-09 04:00:00 8.5 17 Oeste 36 Nordeste 0 -- -- 70
2019-12-09 03:00:00 8.3 6 Sudoeste 58 Este 0 -- -- 71
2019-12-09 02:00:00 9 36 Este 52 Nordeste 0 -- -- 69
2019-12-09 01:00:00 8 19 Sudeste 35 Sudeste 0 -- -- 66
2019-12-09 00:00:00 10 3 Sur 19 Este 0 -- -- 52
2019-12-08 23:00:00 10 18 Norte 44 Nordeste 0 -- -- 42
2019-12-08 22:00:00 9 16 Nordeste 36 Nordeste 0 -- -- 51
2019-12-08 21:00:00 8.8 12 Norte 46 Noroeste 0 -- -- 50
2019-12-08 20:00:00 8.2 6 Noroeste 43 Norte 0 -- -- 53
2019-12-08 19:00:00 8.8 9 Norte 27 Norte 0 -- -- 50
2019-12-08 18:00:00 8.4 15 Norte 28 Nordeste 0 -- -- 49
2019-12-08 17:00:00 12.6 8 Norte 25 Norte 0 -- -- 62
2019-12-08 16:00:00 13.8 12 Noroeste 22 Noroeste 0 -- -- 47
2019-12-08 15:00:00 13.5 15 Nordeste 35 Norte 0 -- -- 32
2019-12-08 14:00:00 13.1 13 Norte 33 Norte 0 -- -- 42
2019-12-08 13:00:00 10.8 12 Noroeste 22 Noroeste 0 -- -- 61
2019-12-08 12:00:00 10.6 11 Noroeste 20 Noroeste 0 -- -- 61
2019-12-08 11:00:00 9.4 10 Oeste 17 Oeste 0 -- -- 62
2019-12-08 10:00:00 9.1 7 Noroeste 12 Noroeste 0 -- -- 63
2019-12-08 09:00:00 6.4 5 Norte 12 Norte 0 -- -- 60
2019-12-08 08:00:00 4.4 5 Norte 15 Nordeste 0 -- -- 69
2019-12-08 07:00:00 5.1 4 Este 13 Norte 0 -- -- 55
2019-12-08 06:00:00 5.2 2 Oeste 14 Norte 0 -- -- 61
2019-12-08 05:00:00 4 8 Nordeste 10 Nordeste 0 -- -- 70
2019-12-08 04:00:00 4.5 5 Norte 12 Norte 0 -- -- 69
2019-12-08 03:00:00 4.4 4 Este 13 Nordeste 0 -- -- 70
2019-12-08 02:00:00 4.2 6 Norte 9 Norte 0 -- -- 82
2019-12-08 01:00:00 4.7 6 Norte 15 Norte 0 -- -- 81
2019-12-08 00:00:00 4.3 4 Nordeste 6 Nordeste 0 -- -- 81
2019-12-07 23:00:00 4.3 4 Norte 6 Norte 0 -- -- 80
2019-12-07 22:00:00 4.7 3 Nordeste 8 Este 0 -- -- 79
2019-12-07 21:00:00 5.3 4 Sudeste 10 Este 0 -- -- 79
2019-12-07 20:00:00 5.5 2 Sudeste 11 Este 0 -- -- 81
2019-12-07 19:00:00 5.5 3 Este 9 Sur 0 -- -- 87
2019-12-07 18:00:00 5.4 6 Este 10 Este 0 -- -- 91
2019-12-07 17:00:00 6 4 Norte 14 Noroeste 0 -- -- 93
2019-12-07 16:00:00 6.6 12 Noroeste 21 Noroeste 0 -- -- 90
2019-12-07 15:00:00 7.2 3 Norte 7 Este 0 -- -- 78
2019-12-07 14:00:00 8.4 4 Oeste 21 Oeste 0 -- -- 67
2019-12-07 13:00:00 11.3 9 Oeste 22 Oeste 0 -- -- 58
2019-12-07 12:00:00 10.6 9 Oeste 15 Oeste 0 -- -- 62
2019-12-07 11:00:00 9.3 6 Sudoeste 12 Sudoeste 0 -- -- 61
2019-12-07 10:00:00 8.7 3 Sudoeste 6 Sudoeste 0 -- -- 63
2019-12-07 09:00:00 5.1 2 Nordeste 12 Sur 0 -- -- 74
2019-12-07 08:00:00 5.2 6 Sur 12 Sur 0 -- -- 75
2019-12-07 07:00:00 5.9 4 Sudeste 10 Sudeste 0 -- -- 66
2019-12-07 06:00:00 5.4 6 Sudeste 15 Sur 0 -- -- 74
2019-12-07 05:00:00 4.9 5 Sudeste 14 Sur 0 -- -- 74
2019-12-07 04:00:00 5.1 6 Sudeste 15 Sudeste 0 -- -- 76
2019-12-07 03:00:00 4.8 6 Sudeste 16 Sudeste 0 -- -- 76
2019-12-07 02:00:00 4.6 8 Sudeste 13 Sudeste 0 -- -- 69
2019-12-07 01:00:00 3.6 9 Sudeste 15 Sur 0 -- -- 81
2019-12-07 00:00:00 3.5 9 Sur 16 Sudeste 0 -- -- 84
2019-12-06 23:00:00 3.7 9 Sudeste 14 Sudeste 0 -- -- 77
2019-12-06 22:00:00 3.3 8 Sudeste 15 Sudeste 0 -- -- 96
2019-12-06 21:00:00 3.4 5 Sudeste 16 Sudeste 0 -- -- 95
2019-12-06 20:00:00 3.8 9 Sudeste 21 Sur 0 -- -- 95
2019-12-06 19:00:00 4.1 8 Sudeste 22 Sur 0 -- -- 97
2019-12-06 18:00:00 4.8 5 Sudeste 10 Sudeste 0 -- -- 96
2019-12-06 17:00:00 7.6 4 Sudeste 18 Sur 0 -- -- 81
2019-12-06 16:00:00 11.3 3 Sudeste 19 Sur 0 -- -- 70
2019-12-06 15:00:00 10.3 8 Sur 18 Sur 0 -- -- 74
2019-12-06 14:00:00 9 8 Sur 21 Sudeste 0 -- -- 78
2019-12-06 13:00:00 7.8 5 Sur 22 Sudeste 0 -- -- 84
2019-12-06 12:00:00 8.4 9 Sudeste 25 Sudeste 0 -- -- 72
2019-12-06 11:00:00 5.4 7 Sudeste 24 Este 0 -- -- 89
2019-12-06 10:00:00 4.3 7 Sudeste 21 Sur 0 -- -- 95
2019-12-06 09:00:00 3.7 11 Sudeste 24 Sudeste 0 -- -- 96
2019-12-06 08:00:00 3.4 14 Sur 26 Sudeste 0 -- -- 94
2019-12-06 07:00:00 3.9 8 Sudeste 19 Sudeste 0 -- -- 88
2019-12-06 06:00:00 4.4 13 Sudeste 26 Sudeste 0 -- -- 87
2019-12-06 05:00:00 4.7 10 Sudeste 26 Sur 0 -- -- 87
2019-12-06 04:00:00 4.3 8 Sudeste 28 Sudeste 0 -- -- 92
2019-12-06 03:00:00 4.2 6 Sudeste 23 Sudeste 0 -- -- 92
2019-12-06 02:00:00 4.1 9 Sudeste 27 Sudeste 0 -- -- 91
2019-12-06 01:00:00 3.9 8 Sudeste 19 Sudeste 0 -- -- 92
2019-12-06 00:00:00 3.7 7 Sudeste 23 Sudeste 0 -- -- 95
2019-12-05 23:00:00 3.8 8 Sudeste 24 Este 0 -- -- 91
2019-12-05 22:00:00 3.8 6 Sudeste 20 Sur 0 -- -- 95
2019-12-05 21:00:00 3.7 7 Sudeste 24 Este 0 -- -- 91
2019-12-05 20:00:00 4 11 Sudeste 28 Sur 0 -- -- 88
2019-12-05 19:00:00 4 8 Sudeste 21 Sur 0 -- -- 91
2019-12-05 18:00:00 4.2 8 Sudeste 19 Sudeste 0 -- -- 94
2019-12-05 17:00:00 4.7 6 Sudeste 16 Sur 0 -- -- 94
2019-12-05 16:00:00 4.7 6 Sur 13 Sudeste 0 -- -- 95
2019-12-05 15:00:00 5.4 6 Sur 18 Sur 0 -- -- 89
2019-12-05 14:00:00 7.3 9 Sur 24 Sur 0 -- -- 76
2019-12-05 13:00:00 7 8 Sudoeste 22 Sur 0 -- -- 75
2019-12-05 12:00:00 6.7 10 Sudoeste 22 Sur 0 -- -- 72
2019-12-05 11:00:00 7.1 5 Sur 15 Sudoeste 0 -- -- 68
2019-12-05 10:00:00 6 4 Sur 12 Sudeste 0 -- -- 68
2019-12-05 09:00:00 3.4 5 Este 9 Este 0 -- -- 76
2019-12-05 08:00:00 2.4 2 Nordeste 6 Nordeste 0 -- -- 82
2019-12-05 07:00:00 2.6 0 Calma 7 Nordeste 0 -- -- 80
2019-12-05 06:00:00 2.7 0 Calma 6 Nordeste 0 -- -- 76
2019-12-05 05:00:00 2.7 5 Este 13 Este 0 -- -- 78
2019-12-05 04:00:00 2.2 6 Sur 9 Sur 0 -- -- 87
2019-12-05 03:00:00 2.6 0 Calma 4 Sudeste 0 -- -- 84
2019-12-05 02:00:00 3.1 0 Calma 4 Este 0 -- -- 87
2019-12-05 01:00:00 3.4 2 Nordeste 10 Sur 0 -- -- 88
2019-12-05 00:00:00 3.9 0 Calma 12 Sudeste 0 -- -- 86
2019-12-04 23:00:00 3.4 5 Sudeste 9 Sudeste 0 -- -- 83
2019-12-04 22:00:00 3.6 5 Sudeste 9 Sudeste 0 -- -- 81
2019-12-04 21:00:00 4.2 5 Sudeste 12 Sur 0 -- -- 76
2019-12-04 20:00:00 4.5 5 Este 10 Este 0 -- -- 72
2019-12-04 19:00:00 4.3 2 Sur 13 Nordeste 0 -- -- 74
2019-12-04 18:00:00 5.3 13 Nordeste 24 Nordeste 0 -- -- 69
2019-12-04 17:00:00 6.8 3 Nordeste 21 Norte 0 -- -- 66
2019-12-04 16:00:00 8.5 11 Norte 27 Norte 0 -- -- 61
2019-12-04 15:00:00 5.1 18 Nordeste 27 Norte 0 -- -- 81
2019-12-04 14:00:00 7.4 15 Noroeste 29 Noroeste 0 -- -- 69
2019-12-04 13:00:00 8.3 10 Noroeste 26 Noroeste 0 -- -- 66
2019-12-04 12:00:00 9.4 14 Noroeste 38 Noroeste 0 -- -- 67
2019-12-04 11:00:00 8.6 24 Norte 46 Nordeste 0 -- -- 61
2019-12-04 10:00:00 7 32 Nordeste 54 Nordeste 0 -- -- 61
2019-12-04 09:00:00 5.4 21 Nordeste 35 Nordeste 0 -- -- 70
2019-12-04 08:00:00 4.3 21 Norte 39 Norte 0 -- -- 72
2019-12-04 07:00:00 4.3 12 Sur 51 Norte 0 -- -- 73
2019-12-04 06:00:00 3.8 14 Norte 51 Nordeste 0 -- -- 80
2019-12-04 05:00:00 4.7 24 Norte 49 Nordeste 0 -- -- 75
2019-12-04 04:00:00 4.2 20 Norte 41 Noroeste 0 -- -- 78
2019-12-04 03:00:00 4.7 21 Nordeste 32 Nordeste 0 -- -- 76
2019-12-04 02:00:00 4.6 15 Norte 24 Norte 0 -- -- 79
2019-12-04 01:00:00 4.8 14 Nordeste 24 Nordeste 0 -- -- 80
2019-12-04 00:00:00 4.3 12 Nordeste 17 Nordeste 0 -- -- 83
2019-12-03 23:00:00 3.9 4 Sur 10 Este 0 -- -- 89
2019-12-03 22:00:00 4.7 4 Este 16 Sudeste 0 -- -- 79
2019-12-03 21:00:00 3.7 0 Calma 16 Oeste 0 -- -- 94
2019-12-03 20:00:00 4 8 Norte 31 Nordeste 0 -- -- 85
2019-12-03 19:00:00 3.7 5 Sudeste 30 Este 0 -- -- 88
2019-12-03 18:00:00 4.1 15 Este 30 Este 0 -- -- 87
2019-12-03 17:00:00 3.2 3 Este 20 Sudeste 0.4 -- -- 99
2019-12-03 16:00:00 4.1 7 Este 29 Este 0 -- -- 89
2019-12-03 15:00:00 4.5 7 Este 40 Sudeste 0 -- -- 89
2019-12-03 14:00:00 4 9 Este 37 Sudeste 0.6 -- -- 91
2019-12-03 13:00:00 4 8 Este 27 Sudeste 1.4 -- -- 92
2019-12-03 12:00:00 4.5 6 Este 35 Sur 1 -- -- 94
2019-12-03 11:00:00 4.7 9 Este 38 Este 0 -- -- 91
2019-12-03 10:00:00 4.5 18 Sudeste 41 Este 0.2 -- -- 87
2019-12-03 09:00:00 3.2 5 Sudeste 26 Sudeste 5.4 -- -- 96
2019-12-03 08:00:00 3.3 9 Sudeste 30 Sur 0.4 -- -- 98
2019-12-03 07:00:00 3.5 5 Este 24 Sudeste 0.2 -- -- 94
2019-12-03 06:00:00 3.8 11 Sudeste 38 Este 0.2 -- -- 91
2019-12-03 05:00:00 4 5 Sur 24 Sudeste 1 -- -- 97
2019-12-03 04:00:00 4.1 7 Este 25 Sur 0.6 -- -- 98
2019-12-03 03:00:00 3.4 5 Sur 20 Sur 1.6 -- -- 98
2019-12-03 02:00:00 4.4 7 Este 26 Sur 0.8 -- -- 99
2019-12-03 01:00:00 3.8 5 Sudeste 23 Sudeste 3.2 -- -- 99
2019-12-03 00:00:00 4.1 4 Sudeste 25 Este 0.6 -- -- 99
2019-12-02 23:00:00 3.8 5 Sudeste 19 Sudeste 1 -- -- 99
2019-12-02 22:00:00 3.7 6 Sudeste 31 Sudeste 0.6 -- -- 98
2019-12-02 21:00:00 3.9 9 Sudeste 30 Sudeste 0.2 -- -- 97
2019-12-02 20:00:00 3.7 7 Sudeste 23 Sur 0.6 -- -- 96
2019-12-02 19:00:00 3.6 5 Sur 23 Este 0.2 -- -- 98
2019-12-02 18:00:00 3.8 6 Sudeste 19 Sur 0 -- -- 98
2019-12-02 17:00:00 4.3 6 Sudeste 18 Sur 0.6 -- -- 96
2019-12-02 16:00:00 4.9 4 Sudeste 19 Sudeste 0 -- -- 92
2019-12-02 15:00:00 8.7 8 Sur 20 Sur 0 -- -- 71
2019-12-02 14:00:00 5.7 6 Sur 16 Sur 0 -- -- 87
2019-12-02 13:00:00 6.5 6 Sur 19 Sur 0 -- -- 81
2019-12-02 12:00:00 6.4 5 Sur 16 Sur 0 -- -- 84
2019-12-02 11:00:00 4.1 5 Sur 16 Sudeste 0 -- -- 96
2019-12-02 10:00:00 7.3 4 Sudeste 8 Sudeste 0 -- -- 76
2019-12-02 09:00:00 3.1 3 Este 6 Este 0 -- -- 91
2019-12-02 08:00:00 2.4 2 Sur 12 Este 0 -- -- 93
2019-12-02 07:00:00 2.4 2 Este 8 Nordeste 0 -- -- 100
2019-12-02 06:00:00 1.9 6 Nordeste 8 Nordeste 0.2 -- -- 99
2019-12-02 05:00:00 2.5 5 Norte 8 Norte 0 -- -- 100
2019-12-02 04:00:00 3.1 5 Norte 14 Noroeste 0 -- -- 100
2019-12-02 03:00:00 3.5 8 Noroeste 15 Norte 0 -- -- 100
2019-12-02 02:00:00 3.5 10 Noroeste 16 Noroeste 0.2 -- -- 100
2019-12-02 01:00:00 3.6 10 Noroeste 18 Oeste 0.6 -- -- 99
2019-12-02 00:00:00 3.8 10 Noroeste 19 Noroeste 0.2 -- -- 99
2019-12-01 23:00:00 3.9 6 Noroeste 15 Noroeste 0 -- -- 99
2019-12-01 22:00:00 4.1 13 Norte 25 Noroeste 0 -- -- 99
2019-12-01 21:00:00 4.5 14 Noroeste 24 Noroeste 0 -- -- 97
2019-12-01 20:00:00 4.6 14 Norte 22 Noroeste 0 -- -- 97
2019-12-01 19:00:00 4.4 12 Norte 17 Norte 0 -- -- 95
2019-12-01 18:00:00 5.1 8 Noroeste 21 Norte 0 -- -- 84
2019-12-01 17:00:00 6.5 13 Norte 23 Noroeste 0 -- -- 87
2019-12-01 16:00:00 10.7 16 Noroeste 36 Noroeste 0 -- -- 63
2019-12-01 15:00:00 11 19 Noroeste 35 Noroeste 0 -- -- 58
2019-12-01 14:00:00 11.6 18 Noroeste 35 Noroeste 0 -- -- 49
2019-12-01 13:00:00 11 25 Norte 42 Noroeste 0 -- -- 61
2019-12-01 12:00:00 10.6 22 Noroeste 38 Noroeste 0 -- -- 57
2019-12-01 11:00:00 10.1 20 Norte 35 Noroeste 0 -- -- 66
2019-12-01 10:00:00 7.2 13 Norte 28 Norte 0 -- -- 85
2019-12-01 09:00:00 5.8 5 Noroeste 12 Noroeste 0 -- -- 87
2019-12-01 08:00:00 5.6 5 Sudeste 19 Nordeste 0 -- -- 88
2019-12-01 07:00:00 6 13 Norte 29 Noroeste 0 -- -- 84
2019-12-01 06:00:00 6 15 Norte 23 Norte 0 -- -- 80
2019-12-01 05:00:00 7.6 9 Norte 24 Norte 0 -- -- 54
2019-12-01 04:00:00 7.8 22 Norte 32 Norte 0 -- -- 52
2019-12-01 03:00:00 8 28 Norte 36 Noroeste 0 -- -- 49
2019-12-01 02:00:00 7.6 22 Noroeste 35 Norte 0 -- -- 57
2019-12-01 01:00:00 8.8 23 Noroeste 38 Noroeste 0 -- -- 49
2019-12-01 00:00:00 8.9 15 Noroeste 19 Noroeste 0 -- -- 45
2019-11-30 23:00:00 8.7 5 Este 31 Noroeste 0 -- -- 46
2019-11-30 22:00:00 8.8 18 Norte 26 Norte 0 -- -- 51
2019-11-30 21:00:00 10.5 17 Norte 27 Norte 0 -- -- 36
2019-11-30 20:00:00 10.2 21 Norte 26 Noroeste 0 -- -- 38
2019-11-30 19:00:00 10.8 18 Norte 27 Noroeste 0 -- -- 41
2019-11-30 18:00:00 12 21 Norte 37 Norte 0 -- -- 43
2019-11-30 17:00:00 15.5 25 Norte 37 Noroeste 0 -- -- 38
2019-11-30 16:00:00 16.9 23 Noroeste 34 Norte 0 -- -- 39
2019-11-30 15:00:00 17.8 15 Noroeste 23 Noroeste 0 -- -- 40
2019-11-30 14:00:00 18.4 14 Noroeste 28 Norte 0 -- -- 38
2019-11-30 13:00:00 17.4 10 Noroeste 17 Noroeste 0 -- -- 39
2019-11-30 12:00:00 16.8 5 Noroeste 11 Oeste 0 -- -- 36
2019-11-30 11:00:00 16.2 5 Noroeste 8 Oeste 0 -- -- 37
2019-11-30 10:00:00 15.3 3 Noroeste 6 Noroeste 0 -- -- 36
2019-11-30 09:00:00 12.1 5 Norte 8 Norte 0 -- -- 41
2019-11-30 08:00:00 10.1 4 Norte 7 Norte 0 -- -- 46
2019-11-30 07:00:00 10.4 4 Norte 6 Norte 0 -- -- 44
2019-11-30 06:00:00 10.4 5 Nordeste 14 Norte 0 -- -- 43
2019-11-30 05:00:00 10.9 8 Norte 17 Norte 0 -- -- 41
2019-11-30 04:00:00 11.1 11 Norte 15 Norte 0 -- -- 41
2019-11-30 03:00:00 10.8 10 Norte 13 Norte 0 -- -- 42
2019-11-30 02:00:00 11 10 Norte 14 Norte 0 -- -- 42
2019-11-30 01:00:00 11.2 9 Norte 15 Norte 0 -- -- 41
2019-11-30 00:00:00 10.5 10 Norte 14 Norte 0 -- -- 42
2019-11-29 23:00:00 10.9 9 Nordeste 16 Norte 0 -- -- 42
2019-11-29 22:00:00 10.5 12 Norte 14 Norte 0 -- -- 45
2019-11-29 21:00:00 10.8 4 Norte 7 Norte 0 -- -- 48
2019-11-29 20:00:00 11.2 3 Nordeste 6 Norte 0 -- -- 47
2019-11-29 19:00:00 11.9 2 Nordeste 8 Nordeste 0 -- -- 42
2019-11-29 18:00:00 13.5 4 Norte 14 Noroeste 0 -- -- 44
2019-11-29 17:00:00 17.4 11 Noroeste 16 Noroeste 0 -- -- 38
2019-11-29 16:00:00 17.8 12 Noroeste 22 Noroeste 0 -- -- 33
2019-11-29 15:00:00 17.9 15 Noroeste 31 Noroeste 0 -- -- 34
2019-11-29 14:00:00 18.2 23 Noroeste 31 Norte 0 -- -- 33
2019-11-29 13:00:00 17.3 18 Noroeste 24 Noroeste 0 -- -- 34
2019-11-29 12:00:00 16.4 13 Noroeste 20 Noroeste 0 -- -- 32
2019-11-29 11:00:00 17.4 12 Noroeste 15 Noroeste 0 -- -- 29
2019-11-29 10:00:00 15.4 5 Noroeste 13 Noroeste 0 -- -- 29
2019-11-29 09:00:00 13.3 4 Noroeste 17 Noroeste 0 -- -- 29
2019-11-29 08:00:00 11 11 Norte 24 Nordeste 0 -- -- 39
2019-11-29 07:00:00 12.2 14 Norte 28 Norte 0 -- -- 38
2019-11-29 06:00:00 11.8 13 Norte 24 Nordeste 0 -- -- 41
2019-11-29 05:00:00 12.6 15 Nordeste 23 Nordeste 0 -- -- 41
2019-11-29 04:00:00 12.2 3 Nordeste 13 Sudeste 0 -- -- 37
2019-11-29 03:00:00 10 4 Norte 9 Norte 0 -- -- 40
2019-11-29 02:00:00 11.6 4 Sudoeste 10 Este 0 -- -- 32
2019-11-29 01:00:00 11.2 0 Calma 9 Nordeste 0 -- -- 34
2019-11-29 00:00:00 10.2 3 Nordeste 8 Oeste 0 -- -- 41
2019-11-28 23:00:00 10.3 4 Este 11 Nordeste 0 -- -- 47
2019-11-28 22:00:00 9.8 0 Calma 8 Este 0 -- -- 58
2019-11-28 21:00:00 9.6 3 Nordeste 5 Nordeste 0 -- -- 59
2019-11-28 20:00:00 10.2 0 Calma 6 Sudeste 0 -- -- 57
2019-11-28 19:00:00 9.6 4 Sudeste 6 Sudeste 0 -- -- 66
2019-11-28 18:00:00 10.7 3 Este 11 Noroeste 0 -- -- 63
2019-11-28 17:00:00 14.6 8 Norte 17 Noroeste 0 -- -- 52
2019-11-28 16:00:00 15.5 13 Noroeste 19 Noroeste 0 -- -- 47
2019-11-28 15:00:00 16.1 12 Noroeste 21 Norte 0 -- -- 46
2019-11-28 14:00:00 15.6 5 Norte 17 Noroeste 0 -- -- 45
2019-11-28 13:00:00 14.7 7 Oeste 13 Noroeste 0 -- -- 48
2019-11-28 12:00:00 12.8 8 Noroeste 15 Oeste 0 -- -- 57
2019-11-28 11:00:00 13.1 5 Oeste 9 Oeste 0 -- -- 56
2019-11-28 10:00:00 13.2 3 Oeste 8 Sur 0 -- -- 46
2019-11-28 09:00:00 12.4 6 Norte 9 Norte 0 -- -- 39
2019-11-28 08:00:00 8.9 6 Este 11 Noroeste 0 -- -- 49
2019-11-28 07:00:00 9.3 5 Norte 13 Noroeste 0 -- -- 48
2019-11-28 06:00:00 8.1 6 Noroeste 13 Noroeste 0 -- -- 65
2019-11-28 05:00:00 8.2 3 Sudeste 44 Nordeste 0 -- -- 67
2019-11-28 04:00:00 11.4 25 Nordeste 37 Nordeste 0 -- -- 35
2019-11-28 03:00:00 10.5 7 Nordeste 15 Nordeste 0 -- -- 20
2019-11-28 02:00:00 7.1 3 Oeste 8 Noroeste 0 -- -- 78
2019-11-28 01:00:00 7.8 3 Norte 13 Este 0 -- -- 69
2019-11-28 00:00:00 8 2 Sudeste 8 Sudoeste 0 -- -- 71
2019-11-27 23:00:00 8.7 4 Sudeste 9 Este 0 -- -- 71
2019-11-27 22:00:00 8.2 3 Sudeste 6 Sudeste 0 -- -- 82
2019-11-27 21:00:00 8.8 2 Nordeste 13 Sur 0 -- -- 75
2019-11-27 20:00:00 8.2 5 Sur 11 Sudeste 0 -- -- 83
2019-11-27 19:00:00 8.2 7 Sudeste 13 Sur 0 -- -- 81
2019-11-27 18:00:00 11.1 0 Calma 10 Noroeste 0 -- -- 67
2019-11-27 17:00:00 14 8 Noroeste 15 Noroeste 0 -- -- 58
2019-11-27 16:00:00 15.5 10 Noroeste 21 Noroeste 0 -- -- 53
2019-11-27 15:00:00 14.7 13 Oeste 23 Noroeste 0 -- -- 55
2019-11-27 14:00:00 14.6 10 Oeste 19 Oeste 0 -- -- 54
2019-11-27 06:00:00 -- -- -- -- -- -- -- -- --
2019-11-27 05:00:00 -- -- -- -- -- -- -- -- --
2019-11-27 04:00:00 -- -- -- -- -- -- -- -- --
2019-11-27 03:00:00 -- -- -- -- -- -- -- -- --
2019-11-27 02:00:00 9.9 16 Noroeste 23 Norte 0 -- -- 61
2019-11-27 01:00:00 9.7 2 Sudeste 16 Sudeste 0 -- -- 48
2019-11-27 00:00:00 8.7 6 Este 18 Norte 0 -- -- 61
2019-11-26 23:00:00 8.7 9 Norte 21 Norte 0 -- -- 66
2019-11-26 22:00:00 8.8 9 Norte 13 Noroeste 0 -- -- 73
2019-11-26 21:00:00 9.5 5 Norte 9 Norte 0 -- -- 71
2019-11-26 20:00:00 9.5 4 Norte 6 Noroeste 0 -- -- 78
2019-11-26 19:00:00 9.1 0 Calma 9 Norte 0 -- -- 85
2019-11-26 18:00:00 9.9 4 Noroeste 13 Noroeste 0 -- -- 81
2019-11-26 17:00:00 11.7 7 Noroeste 17 Noroeste 0 -- -- 70
2019-11-26 16:00:00 14.8 10 Noroeste 15 Noroeste 0 -- -- 59
2019-11-26 15:00:00 14.2 11 Noroeste 17 Noroeste 0 -- -- 63
2019-11-26 14:00:00 14.2 8 Noroeste 14 Noroeste 0 -- -- 59
2019-11-26 13:00:00 15.2 8 Noroeste 20 Noroeste 0 -- -- 56
2019-11-26 12:00:00 16.8 7 Noroeste 13 Oeste 0 -- -- 50
2019-11-26 11:00:00 14.5 3 Norte 13 Oeste 0 -- -- 55
2019-11-26 10:00:00 12.1 6 Noroeste 17 Noroeste 0 -- -- 68
2019-11-26 09:00:00 10 8 Norte 15 Noroeste 0 -- -- 72
2019-11-26 08:00:00 7.7 8 Norte 12 Norte 0 -- -- 80
2019-11-26 07:00:00 7.6 9 Norte 13 Noroeste 0 -- -- 80
2019-11-26 06:00:00 8 11 Norte 14 Norte 0 -- -- 75
2019-11-26 05:00:00 8.2 12 Norte 23 Norte 0 -- -- 74
2019-11-26 04:00:00 9.3 8 Noroeste 18 Norte 0 -- -- 67
2019-11-26 03:00:00 8.7 10 Norte 15 Norte 0 -- -- 72
2019-11-26 02:00:00 8.9 9 Norte 13 Norte 0 -- -- 70
2019-11-26 01:00:00 9.3 8 Norte 15 Nordeste 0 -- -- 66
2019-11-26 00:00:00 10 6 Norte 23 Noroeste 0 -- -- 61
2019-11-25 23:00:00 10.3 14 Norte 33 Norte 0 -- -- 60
2019-11-25 22:00:00 10.6 12 Norte 42 Norte 0 -- -- 56
2019-11-25 21:00:00 14.1 21 Norte 41 Nordeste 0 -- -- 28
2019-11-25 20:00:00 13.3 33 Norte 51 Norte 0 -- -- 34
2019-11-25 19:00:00 12.3 18 Norte 59 Nordeste 0 -- -- 46
2019-11-25 18:00:00 12.1 42 Nordeste 55 Nordeste 0 -- -- 50
2019-11-25 17:00:00 12.7 37 Nordeste 56 Nordeste 0 -- -- 60
2019-11-25 16:00:00 14.5 33 Nordeste 51 Nordeste 0 -- -- 54
2019-11-25 15:00:00 17.4 15 Noroeste 51 Nordeste 0 -- -- 46
2019-11-25 14:00:00 15.4 23 Norte 47 Nordeste 0 -- -- 57
2019-11-25 13:00:00 16.9 12 Norte 21 Noroeste 0 -- -- 38
2019-11-25 12:00:00 13.6 14 Norte 42 Norte 0 -- -- 45
2019-11-25 11:00:00 10.9 11 Noroeste 39 Nordeste 0 -- -- 43
2019-11-25 10:00:00 12.1 23 Norte 50 Nordeste 0 -- -- 60
2019-11-25 09:00:00 12 27 Norte 63 Nordeste 0 -- -- 61
2019-11-25 08:00:00 9.9 45 Nordeste 65 Nordeste 0 -- -- 75
2019-11-25 07:00:00 10.4 30 Nordeste 67 Nordeste 0 -- -- 70
2019-11-25 06:00:00 11.4 38 Nordeste 58 Nordeste 0 -- -- 58
2019-11-25 05:00:00 10.9 32 Nordeste 65 Nordeste 0 -- -- 53
2019-11-25 04:00:00 10.7 40 Nordeste 63 Norte 0 -- -- 56
2019-11-25 03:00:00 11.6 28 Nordeste 60 Nordeste 0 -- -- 52
2019-11-25 02:00:00 11 42 Nordeste 62 Nordeste 0 -- -- 52
2019-11-25 01:00:00 12.7 29 Nordeste 40 Nordeste 0 -- -- 21
2019-11-25 00:00:00 12 30 Nordeste 41 Nordeste 0 -- -- 15
2019-11-24 23:00:00 12.1 31 Nordeste 42 Nordeste 0 -- -- 17
2019-11-24 22:00:00 12.6 28 Nordeste 50 Nordeste 0 -- -- 19
2019-11-24 21:00:00 10.4 40 Nordeste 67 Nordeste 0 -- -- 45
2019-11-24 20:00:00 9.1 46 Nordeste 57 Nordeste 0 -- -- 56
2019-11-24 19:00:00 9.5 24 Norte 37 Norte 0 -- -- 46
2019-11-24 18:00:00 7.8 3 Sudoeste 16 Noroeste 0 -- -- 27
2019-11-24 17:00:00 12.1 12 Noroeste 23 Noroeste 0 -- -- 42
2019-11-24 16:00:00 11.8 18 Noroeste 27 Noroeste 0 -- -- 42
2019-11-24 15:00:00 12.9 18 Noroeste 28 Noroeste 0 -- -- 34
2019-11-24 14:00:00 11.8 19 Noroeste 29 Noroeste 0 -- -- 31
2019-11-24 13:00:00 10.5 17 Noroeste 24 Noroeste 0 -- -- 32
2019-11-24 12:00:00 7.4 19 Norte 63 Norte 0 -- -- 33
2019-11-24 11:00:00 7.9 26 Norte 68 Norte 0 -- -- 17
2019-11-24 10:00:00 6.3 32 Norte 55 Norte 0 -- -- 23
2019-11-24 09:00:00 6.1 44 Norte 63 Norte 0 -- -- 27
2019-11-24 08:00:00 5.4 42 Nordeste 57 Nordeste 0 -- -- 24
2019-11-24 07:00:00 4.9 32 Norte 53 Norte 0 -- -- 27
2019-11-24 06:00:00 4.6 31 Nordeste 64 Nordeste 0 -- -- 29
2019-11-24 05:00:00 4.9 41 Nordeste 60 Nordeste 0 -- -- 30
2019-11-24 04:00:00 4.9 41 Nordeste 58 Nordeste 0 -- -- 32
2019-11-24 03:00:00 3.2 39 Nordeste 53 Nordeste 0 -- -- 52
2019-11-24 02:00:00 3.4 38 Nordeste 57 Nordeste 0 -- -- 56
2019-11-24 01:00:00 2.3 45 Nordeste 54 Nordeste 0 -- -- 67
2019-11-24 00:00:00 2.6 27 Nordeste 41 Nordeste 0 -- -- 60
2019-11-23 23:00:00 3.3 31 Norte 55 Norte 0 -- -- 55
2019-11-23 22:00:00 3.2 23 Norte 49 Noroeste 0 -- -- 62
2019-11-23 21:00:00 3.8 27 Noroeste 62 Norte 0 -- -- 60
2019-11-23 20:00:00 3.7 35 Noroeste 76 Noroeste 0 -- -- 59
2019-11-23 19:00:00 3.5 14 Sudoeste 72 Noroeste 0 -- -- 58
2019-11-23 18:00:00 3.4 21 Sudoeste 87 Nordeste 0 -- -- 62
2019-11-23 17:00:00 4.8 57 Nordeste 95 Nordeste 0 -- -- 59
2019-11-23 16:00:00 5.3 65 Nordeste 94 Nordeste 0 -- -- 57
2019-11-23 15:00:00 5.4 60 Nordeste 89 Este 0 -- -- 57
2019-11-23 14:00:00 5.8 51 Nordeste 90 Nordeste 0 -- -- 56
2019-11-23 13:00:00 5.5 45 Nordeste 79 Este 0 -- -- 59
2019-11-23 12:00:00 4.9 49 Nordeste 99 Nordeste 0 -- -- 61
2019-11-23 11:00:00 4.9 35 Nordeste 77 Nordeste 0 -- -- 58
2019-11-23 10:00:00 5 21 Norte 86 Nordeste 0 -- -- 58
2019-11-23 09:00:00 3.5 53 Noroeste 100 Norte 0.2 -- -- 77
2019-11-23 08:00:00 2.8 35 Norte 96 Noroeste 0 -- -- 84
2019-11-23 07:00:00 5.6 63 Norte 118 Norte 0 -- -- 65
2019-11-23 06:00:00 5.5 56 Norte 107 Norte 0 -- -- 58
2019-11-23 05:00:00 7 57 Norte 91 Norte 0.2 -- -- 49
2019-11-23 04:00:00 5.9 9 Nordeste 33 Nordeste 0 -- -- 56
2019-11-23 03:00:00 5.4 6 Este 18 Este 0 -- -- 55
2019-11-23 02:00:00 5.3 7 Norte 21 Norte 0 -- -- 62
2019-11-23 01:00:00 5 6 Noroeste 22 Noroeste 0 -- -- 88
2019-11-23 00:00:00 5.3 7 Norte 17 Noroeste 0 -- -- 100
2019-11-22 23:00:00 5.9 8 Noroeste 40 Norte 0 -- -- 100
2019-11-22 22:00:00 8.6 32 Noroeste 53 Noroeste 1.2 -- -- 100
2019-11-22 21:00:00 8.7 34 Noroeste 58 Noroeste 5 -- -- 100
2019-11-22 20:00:00 8 26 Noroeste 49 Noroeste 7.8 -- -- 100
2019-11-22 19:00:00 7.5 31 Noroeste 67 Noroeste 6.6 -- -- 100
2019-11-22 18:00:00 7 44 Noroeste 57 Noroeste 2.8 -- -- 100
2019-11-22 17:00:00 6.5 25 Noroeste 35 Noroeste 3 -- -- 100
2019-11-22 16:00:00 6.2 30 Noroeste 36 Noroeste 2.2 -- -- 100
2019-11-22 15:00:00 6.3 25 Noroeste 53 Noroeste 2.6 -- -- 100
2019-11-22 14:00:00 6.5 42 Noroeste 58 Oeste 2.4 -- -- 100
2019-11-22 13:00:00 6.5 19 Noroeste 41 Noroeste 4.4 -- -- 100
2019-11-22 12:00:00 6.7 14 Noroeste 39 Noroeste 1.2 -- -- 100
2019-11-22 11:00:00 6.6 13 Noroeste 25 Noroeste 1.6 -- -- 100
2019-11-22 10:00:00 6.2 16 Noroeste 30 Noroeste 3.6 -- -- 100
2019-11-22 09:00:00 6.2 18 Noroeste 27 Noroeste 1.8 -- -- 100
2019-11-22 08:00:00 6.2 20 Noroeste 29 Norte 2 -- -- 100
2019-11-22 07:00:00 6.1 19 Norte 29 Noroeste 0.2 -- -- 100
2019-11-22 06:00:00 5.9 18 Norte 37 Norte 0.2 -- -- 100
2019-11-22 05:00:00 5.8 17 Noroeste 30 Noroeste 0.2 -- -- 100
2019-11-22 04:00:00 5.8 23 Noroeste 35 Norte 0 -- -- 100
2019-11-22 03:00:00 5.7 15 Noroeste 37 Noroeste 0 -- -- 100
2019-11-22 02:00:00 5.7 23 Noroeste 41 Noroeste 0.4 -- -- 100
2019-11-22 01:00:00 5.8 22 Noroeste 34 Noroeste 1 -- -- 100
2019-11-22 00:00:00 5.8 19 Noroeste 35 Noroeste 0.8 -- -- 100
2019-11-21 23:00:00 5.8 18 Noroeste 40 Oeste 0.4 -- -- 100
2019-11-21 22:00:00 5.5 19 Noroeste 29 Noroeste 2.2 -- -- 100
2019-11-21 21:00:00 5.4 25 Noroeste 51 Oeste 2.4 -- -- 100
2019-11-21 20:00:00 5.6 22 Noroeste 49 Oeste 5.4 -- -- 100
2019-11-21 19:00:00 5.3 18 Noroeste 30 Noroeste 3.2 -- -- 100
2019-11-21 18:00:00 5.2 21 Noroeste 42 Noroeste 0.2 -- -- 100
2019-11-21 17:00:00 5.1 21 Norte 35 Noroeste 0 -- -- 99
2019-11-21 16:00:00 4.9 18 Norte 28 Norte 0 -- -- 99
2019-11-21 15:00:00 4.9 15 Norte 23 Norte 0.2 -- -- 98
2019-11-21 14:00:00 4.6 13 Norte 18 Noroeste 1 -- -- 98
2019-11-21 13:00:00 5.2 13 Noroeste 18 Noroeste 0.4 -- -- 95
2019-11-21 12:00:00 4.9 12 Noroeste 23 Norte 0 -- -- 94
2019-11-21 11:00:00 5.3 12 Noroeste 21 Noroeste 0 -- -- 90
2019-11-21 10:00:00 4.5 4 Norte 28 Norte 0 -- -- 97
2019-11-21 09:00:00 3.7 20 Noroeste 28 Noroeste 0 -- -- 95
2019-11-21 08:00:00 -- -- -- -- -- -- -- -- --
2019-11-21 07:00:00 -- -- -- -- -- -- -- -- --
2019-11-21 06:00:00 -- -- -- -- -- -- -- -- --
2019-11-21 05:00:00 -- -- -- -- -- -- -- -- --
2019-11-21 04:00:00 -- -- -- -- -- -- -- -- --
2019-11-21 03:00:00 -- -- -- -- -- -- -- -- --
2019-11-21 02:00:00 -- -- -- -- -- -- -- -- --
2019-11-21 01:00:00 -- -- -- -- -- -- -- -- --
2019-11-21 00:00:00 -- -- -- -- -- -- -- -- --
2019-11-20 23:00:00 -- -- -- -- -- -- -- -- --
2019-11-20 22:00:00 -- -- -- -- -- -- -- -- --
2019-11-20 21:00:00 -- -- -- -- -- -- -- -- --
2019-11-20 20:00:00 -- -- -- -- -- -- -- -- --
2019-11-20 19:00:00 3.2 13 Norte 17 Noroeste 0 -- -- 93
2019-11-20 18:00:00 3.2 11 Noroeste 25 Noroeste 0 -- -- 94
2019-11-20 17:00:00 3.7 17 Noroeste 35 Norte 0 -- -- 89
2019-11-20 16:00:00 4.5 24 Noroeste 32 Noroeste 0 -- -- 83
2019-11-20 15:00:00 6.2 18 Noroeste 39 Noroeste 0 -- -- 73
2019-11-20 14:00:00 6.8 23 Noroeste 37 Noroeste 0 -- -- 68
2019-11-20 13:00:00 6.9 24 Noroeste 38 Noroeste 0 -- -- 55
2019-11-20 12:00:00 7.7 17 Noroeste 27 Norte 0 -- -- 61
2019-11-20 11:00:00 4.8 16 Noroeste 24 Norte 0 -- -- 70
2019-11-20 10:00:00 5.8 15 Noroeste 24 Noroeste 0 -- -- 65
2019-11-20 09:00:00 3.7 19 Norte 26 Noroeste 0 -- -- 68
2019-11-20 08:00:00 1.2 15 Norte 21 Norte 0 -- -- 71
2019-11-20 07:00:00 1.1 11 Norte 14 Norte 0 -- -- 71
2019-11-20 06:00:00 0.7 4 Norte 8 Norte 0 -- -- 75
2019-11-20 05:00:00 0.8 5 Norte 13 Norte 0 -- -- 83
2019-11-20 04:00:00 1.1 10 Norte 13 Norte 0 -- -- 86
2019-11-20 03:00:00 1.6 4 Norte 8 Norte 0 -- -- 79
2019-11-20 02:00:00 2.5 4 Norte 6 Norte 0 -- -- 75
2019-11-20 01:00:00 2.8 3 Norte 8 Norte 0 -- -- 75
2019-11-20 00:00:00 2.7 5 Norte 7 Norte 0 -- -- 78
2019-11-19 23:00:00 2.6 2 Sur 3 Sur 0 -- -- 78
2019-11-19 22:00:00 2.9 0 Calma 4 Este 0 -- -- 79
2019-11-19 21:00:00 2.3 3 Sudeste 7 Este 0 -- -- 88
2019-11-19 20:00:00 1.9 5 Sur 6 Sur 0 -- -- 93
2019-11-19 19:00:00 2.8 4 Sudeste 9 Norte 0 -- -- 86
2019-11-19 18:00:00 3.1 8 Norte 17 Noroeste 0 -- -- 86
2019-11-19 17:00:00 5.1 14 Noroeste 23 Noroeste 0 -- -- 75
2019-11-19 16:00:00 7.2 17 Noroeste 28 Noroeste 0 -- -- 65
2019-11-19 15:00:00 7.5 17 Noroeste 30 Noroeste 0 -- -- 63
2019-11-19 14:00:00 7.2 15 Noroeste 26 Noroeste 0 -- -- 56
2019-11-19 13:00:00 7.6 15 Noroeste 22 Noroeste 0 -- -- 55
2019-11-19 12:00:00 6.7 9 Oeste 16 Noroeste 0 -- -- 60
2019-11-19 11:00:00 5.5 3 Oeste 12 Oeste 0 -- -- 64
2019-11-19 10:00:00 3.8 7 Noroeste 15 Noroeste 0 -- -- 71
2019-11-19 09:00:00 3.1 10 Norte 21 Norte 0 -- -- 72
2019-11-19 08:00:00 1 17 Norte 22 Norte 0 -- -- 79
2019-11-19 07:00:00 0.9 17 Norte 21 Norte 0 -- -- 80
2019-11-19 06:00:00 0.7 7 Norte 13 Norte 0 -- -- 80
2019-11-19 05:00:00 1.5 10 Norte 17 Norte 0 -- -- 76
2019-11-19 04:00:00 2 9 Norte 17 Norte 0 -- -- 75
2019-11-19 03:00:00 1.5 5 Norte 19 Norte 0 -- -- 73
2019-11-19 02:00:00 1.5 12 Norte 23 Norte 0 -- -- 72
2019-11-19 01:00:00 2.1 14 Norte 27 Norte 0 -- -- 64
2019-11-19 00:00:00 2.5 21 Norte 30 Noroeste 0 -- -- 60
2019-11-18 23:00:00 3.7 16 Norte 43 Nordeste 0 -- -- 42
2019-11-18 22:00:00 2.1 6 Este 20 Este 0 -- -- 51
2019-11-18 21:00:00 2.4 13 Este 39 Nordeste 0 -- -- 50
2019-11-18 20:00:00 2 36 Nordeste 64 Nordeste 0 -- -- 64
2019-11-18 19:00:00 2.6 45 Nordeste 58 Nordeste 0 -- -- 58
2019-11-18 18:00:00 2.5 17 Este 35 Este 0 -- -- 65
2019-11-18 17:00:00 4.3 19 Este 52 Nordeste 0 -- -- 62
2019-11-18 16:00:00 5.2 37 Nordeste 53 Nordeste 0 -- -- 60
2019-11-18 15:00:00 6 25 Nordeste 46 Nordeste 0 -- -- 58
2019-11-18 14:00:00 5.5 29 Nordeste 50 Nordeste 0 -- -- 58
2019-11-18 13:00:00 6.6 13 Sudeste 45 Norte 0 -- -- 54
2019-11-18 12:00:00 6.2 18 Oeste 67 Norte 0 -- -- 60
2019-11-18 11:00:00 3.6 40 Nordeste 76 Nordeste 0 -- -- 72
2019-11-18 10:00:00 4 31 Nordeste 68 Nordeste 0.2 -- -- 62
2019-11-18 09:00:00 3.9 13 Nordeste 40 Norte 0 -- -- 61
2019-11-18 08:00:00 2.6 27 Norte 60 Nordeste 0 -- -- 81
2019-11-18 07:00:00 2.7 27 Nordeste 72 Nordeste 0.6 -- -- 84
2019-11-18 06:00:00 2.1 44 Nordeste 63 Nordeste 1.6 -- -- 98
2019-11-18 05:00:00 4.5 12 Noroeste 22 Noroeste 0.2 -- -- 99
2019-11-18 04:00:00 4.4 12 Noroeste 19 Oeste 0 -- -- 98
2019-11-18 03:00:00 4.5 5 Noroeste 12 Norte 0 -- -- 95
2019-11-18 02:00:00 4.7 3 Norte 8 Norte 0 -- -- 93
2019-11-18 01:00:00 4.3 2 Nordeste 13 Noroeste 0 -- -- 96
2019-11-18 00:00:00 3.9 2 Sur 12 Norte 0 -- -- 94
2019-11-17 23:00:00 4.3 3 Oeste 12 Este 0 -- -- 90
2019-11-17 22:00:00 3.9 3 Sudeste 17 Sudeste 0 -- -- 90
2019-11-17 21:00:00 4.4 2 Este 25 Norte 0 -- -- 92
2019-11-17 20:00:00 4 6 Norte 16 Noroeste 0 -- -- 85
2019-11-17 19:00:00 4.2 3 Noroeste 12 Noroeste 0 -- -- 82
2019-11-17 18:00:00 5.6 4 Norte 17 Norte 0 -- -- 64
2019-11-17 17:00:00 9.3 9 Noroeste 25 Noroeste 0 -- -- 48
2019-11-17 16:00:00 8.6 21 Norte 44 Nordeste 0 -- -- 50
2019-11-17 15:00:00 7 6 Noroeste 12 Oeste 0 -- -- 47
2019-11-17 14:00:00 8.1 2 Nordeste 18 Noroeste 0 -- -- 39
2019-11-17 13:00:00 8.6 12 Noroeste 21 Noroeste 0 -- -- 33
2019-11-17 12:00:00 6.9 17 Noroeste 23 Noroeste 0 -- -- 31
2019-11-17 11:00:00 6.8 7 Norte 16 Norte 0 -- -- 48
2019-11-17 10:00:00 5.2 7 Noroeste 48 Norte 0 -- -- 48
2019-11-17 09:00:00 5.6 24 Noroeste 46 Noroeste 0 -- -- 48
2019-11-17 08:00:00 4.4 23 Norte 35 Nordeste 0 -- -- 38
2019-11-17 07:00:00 4 23 Norte 44 Norte 0 -- -- 30
2019-11-17 06:00:00 3.3 34 Norte 54 Norte 0 -- -- 20
2019-11-17 05:00:00 3.3 40 Norte 57 Noroeste 0 -- -- 19
2019-11-17 04:00:00 2.9 29 Norte 42 Norte 0 -- -- 20
2019-11-17 03:00:00 2.9 24 Norte 52 Norte 0 -- -- 22
2019-11-17 02:00:00 3.5 31 Nordeste 45 Norte 0 -- -- 19
2019-11-17 01:00:00 2.8 9 Norte 37 Norte 0 -- -- 13
2019-11-17 00:00:00 2.8 17 Norte 30 Nordeste 0 -- -- 14
2019-11-16 23:00:00 3.2 20 Nordeste 52 Nordeste 0 -- -- 16
2019-11-16 22:00:00 3 34 Nordeste 51 Nordeste 0 -- -- 25
2019-11-16 21:00:00 2.6 19 Nordeste 55 Nordeste 0 -- -- 30
2019-11-16 20:00:00 3.6 33 Nordeste 54 Nordeste 0 -- -- 27
2019-11-16 19:00:00 1.4 30 Nordeste 50 Nordeste 0 -- -- 49
2019-11-16 18:00:00 2.7 29 Norte 51 Nordeste 0 -- -- 44
2019-11-16 17:00:00 5 27 Norte 49 Norte 0 -- -- 38
2019-11-16 16:00:00 7.1 17 Norte 33 Norte 0 -- -- 31
2019-11-16 15:00:00 7.7 17 Norte 40 Nordeste 0 -- -- 29
2019-11-16 14:00:00 6.1 24 Norte 44 Nordeste 0 -- -- 31
2019-11-16 13:00:00 8.4 15 Noroeste 40 Nordeste 0 -- -- 31
2019-11-16 12:00:00 6.3 16 Norte 39 Nordeste 0 -- -- 31
2019-11-16 11:00:00 4 21 Nordeste 36 Nordeste 0 -- -- 38
2019-11-16 10:00:00 3.5 8 Sudoeste 44 Norte 0 -- -- 41
2019-11-16 09:00:00 0.9 26 Norte 50 Nordeste 0 -- -- 48
2019-11-16 08:00:00 -0.2 8 Norte 33 Norte 0 -- -- 47
2019-11-16 07:00:00 -0.1 17 Norte 29 Norte 0 -- -- 50
2019-11-16 06:00:00 -0.5 20 Norte 28 Norte 0 -- -- 58
2019-11-16 05:00:00 -0.9 11 Norte 32 Norte 0 -- -- 69
2019-11-16 04:00:00 -0.6 13 Norte 46 Nordeste 0 -- -- 71
2019-11-16 03:00:00 -0.4 27 Nordeste 53 Nordeste 0 -- -- 70
2019-11-16 02:00:00 0 13 Este 39 Este 0 -- -- 61
2019-11-16 01:00:00 0.6 14 Nordeste 48 Este 0 -- -- 49
2019-11-16 00:00:00 0.1 24 Este 51 Nordeste 0 -- -- 59
2019-11-15 23:00:00 -0.2 23 Este 53 Nordeste 0 -- -- 57
2019-11-15 22:00:00 -0.4 34 Nordeste 53 Este 0 -- -- 57
2019-11-15 21:00:00 -0.2 19 Nordeste 53 Este 0 -- -- 49
2019-11-15 20:00:00 -0.7 30 Este 49 Nordeste 0 -- -- 52
2019-11-15 19:00:00 -0.1 17 Este 28 Nordeste 0 -- -- 51
2019-11-15 18:00:00 0.4 12 Este 32 Este 0 -- -- 51
2019-11-15 17:00:00 3.4 13 Noroeste 22 Noroeste 0 -- -- 52
2019-11-15 16:00:00 4.6 6 Norte 31 Noroeste 0 -- -- 39
2019-11-15 15:00:00 4 18 Noroeste 30 Oeste 0 -- -- 51
2019-11-15 14:00:00 4.2 17 Oeste 30 Norte 0 -- -- 50
2019-11-15 13:00:00 4.4 19 Noroeste 28 Noroeste 0 -- -- 38
2019-11-15 12:00:00 3.7 15 Noroeste 28 Noroeste 0 -- -- 45
2019-11-15 11:00:00 5.3 10 Oeste 23 Noroeste 0 -- -- 39
2019-11-15 10:00:00 5.4 5 Noroeste 33 Nordeste 0 -- -- 34
2019-11-15 09:00:00 3.4 11 Oeste 49 Nordeste 0 -- -- 33
2019-11-15 08:00:00 1.6 16 Noroeste 64 Noroeste 0 -- -- 32
2019-11-15 07:00:00 2.3 51 Nordeste 84 Norte 0 -- -- 37
2019-11-15 06:00:00 0.7 21 Norte 53 Norte 0 -- -- 49
2019-11-15 05:00:00 0.3 15 Norte 38 Nordeste 0 -- -- 50
2019-11-15 04:00:00 1.5 29 Norte 58 Norte 0 -- -- 45
2019-11-15 03:00:00 1.2 40 Nordeste 62 Nordeste 0 -- -- 53
2019-11-15 02:00:00 1.5 30 Norte 56 Nordeste 0 -- -- 52
2019-11-15 01:00:00 1.7 26 Nordeste 60 Norte 0 -- -- 55
2019-11-15 00:00:00 2.2 32 Norte 78 Norte 0 -- -- 49
2019-11-14 23:00:00 2.5 25 Norte 58 Norte 0 -- -- 51
2019-11-14 22:00:00 2.2 25 Nordeste 82 Nordeste 0 -- -- 59
2019-11-14 21:00:00 2.7 60 Nordeste 92 Nordeste 0 -- -- 53
2019-11-14 20:00:00 3.1 42 Nordeste 66 Este 0 -- -- 50
2019-11-14 19:00:00 3.1 10 Sudoeste 54 Nordeste 0 -- -- 42
2019-11-14 18:00:00 3.8 32 Nordeste 112 Norte 0 -- -- 43
2019-11-14 17:00:00 5.9 58 Norte 113 Nordeste 0 -- -- 39
2019-11-14 16:00:00 6.7 52 Nordeste 104 Norte 0 -- -- 47
2019-11-14 15:00:00 6.8 7 Oeste 36 Noroeste 0 -- -- 71
2019-11-14 14:00:00 8 14 Oeste 26 Oeste 0 -- -- 64
2019-11-14 13:00:00 8.6 21 Noroeste 42 Noroeste 0 -- -- 55
2019-11-14 12:00:00 8.7 19 Noroeste 36 Norte 0 -- -- 47
2019-11-14 11:00:00 8.7 24 Noroeste 40 Norte 0 -- -- 40
2019-11-14 10:00:00 9 32 Norte 53 Norte 0 -- -- 39
2019-11-14 09:00:00 6.9 33 Noroeste 46 Norte 0 -- -- 50
2019-11-14 08:00:00 5.4 21 Noroeste 33 Noroeste 0 -- -- 58
2019-11-14 07:00:00 5.8 14 Norte 18 Norte 0 -- -- 64
2019-11-14 06:00:00 6.6 14 Norte 19 Norte 0 -- -- 58
2019-11-14 05:00:00 6.9 6 Norte 15 Nordeste 0 -- -- 55
2019-11-14 04:00:00 7.8 8 Norte 20 Noroeste 0 -- -- 52
2019-11-14 03:00:00 7.8 9 Norte 14 Nordeste 0 -- -- 50
2019-11-14 02:00:00 8.5 13 Norte 20 Norte 0 -- -- 47
2019-11-14 01:00:00 8.4 13 Norte 19 Norte 0 -- -- 48
2019-11-14 00:00:00 7.5 8 Noroeste 21 Norte 0 -- -- 46
2019-11-13 23:00:00 8.1 7 Norte 13 Nordeste 0 -- -- 45
2019-11-13 22:00:00 10 4 Norte 37 Nordeste 0 -- -- 27
2019-11-13 21:00:00 9.4 6 Este 23 Nordeste 0 -- -- 34
2019-11-13 20:00:00 8.9 4 Sudeste 17 Sudeste 0 -- -- 60
2019-11-13 19:00:00 8.7 7 Sudeste 18 Noroeste 0 -- -- 69
2019-11-13 18:00:00 11.1 13 Norte 31 Noroeste 0 -- -- 60
2019-11-13 17:00:00 14.8 24 Norte 75 Nordeste 0 -- -- 31
2019-11-13 16:00:00 13 55 Nordeste 86 Nordeste 0 -- -- 33
2019-11-13 15:00:00 12.9 64 Nordeste 93 Nordeste 0 -- -- 40
2019-11-13 14:00:00 12.3 60 Nordeste 86 Nordeste 0 -- -- 48
2019-11-13 13:00:00 12.2 51 Nordeste 86 Nordeste 0 -- -- 51
2019-11-13 12:00:00 11.6 42 Nordeste 77 Nordeste 0 -- -- 53
2019-11-13 11:00:00 11.9 32 Norte 68 Norte 0 -- -- 60
2019-11-13 10:00:00 11.3 22 Noroeste 65 Noroeste 0 -- -- 65
2019-11-13 09:00:00 10.1 31 Noroeste 68 Noroeste 0 -- -- 71
2019-11-13 08:00:00 10.5 32 Norte 55 Norte 0 -- -- 48
2019-11-13 07:00:00 10.5 21 Noroeste 71 Noroeste 0 -- -- 39
2019-11-13 06:00:00 10.6 47 Noroeste 75 Noroeste 0 -- -- 43
2019-11-13 05:00:00 10.4 32 Norte 47 Noroeste 0 -- -- 52
2019-11-13 04:00:00 9.7 15 Norte 33 Norte 0 -- -- 48
2019-11-13 03:00:00 10.5 16 Norte 46 Norte 0 -- -- 55
2019-11-13 02:00:00 10.2 23 Norte 40 Noroeste 0 -- -- 56
2019-11-13 01:00:00 9.4 20 Norte 62 Norte 0 -- -- 56
2019-11-13 00:00:00 9.4 43 Norte 64 Norte 0 -- -- 52
2019-11-12 23:00:00 9.6 39 Norte 59 Noroeste 0 -- -- 51
2019-11-12 22:00:00 9.3 41 Norte 63 Norte 0 -- -- 47
2019-11-12 21:00:00 9 31 Norte 49 Norte 0 -- -- 48
2019-11-12 20:00:00 8.8 22 Norte 51 Norte 0 -- -- 49
2019-11-12 19:00:00 8.4 19 Norte 47 Norte 0 -- -- 50
2019-11-12 18:00:00 9.5 17 Norte 48 Nordeste 0 -- -- 48
2019-11-12 17:00:00 10 30 Norte 49 Norte 0 -- -- 44
2019-11-12 16:00:00 12.7 18 Noroeste 33 Norte 0 -- -- 51
2019-11-12 15:00:00 13.1 30 Norte 44 Norte 0 -- -- 34
2019-11-12 14:00:00 14.2 14 Noroeste 37 Nordeste 0 -- -- 41
2019-11-12 13:00:00 12.1 21 Nordeste 39 Nordeste 0 -- -- 27
2019-11-12 12:00:00 10.7 18 Nordeste 57 Norte 0 -- -- 35
2019-11-12 11:00:00 9.3 26 Norte 48 Nordeste 0 -- -- 44
2019-11-12 10:00:00 8.5 29 Norte 50 Norte 0 -- -- 43
2019-11-12 09:00:00 7.7 14 Norte 47 Noroeste 0 -- -- 31
2019-11-12 08:00:00 4.4 6 Sudoeste 33 Norte 0 -- -- 41
2019-11-12 07:00:00 5.3 26 Norte 54 Norte 0 -- -- 45
2019-11-12 06:00:00 5.5 21 Norte 42 Norte 0 -- -- 41
2019-11-12 05:00:00 6.8 23 Nordeste 35 Nordeste 0 -- -- 30
2019-11-12 04:00:00 7 17 Nordeste 59 Nordeste 0 -- -- 31
2019-11-12 03:00:00 6.1 44 Nordeste 67 Nordeste 0 -- -- 54
2019-11-12 02:00:00 6 42 Nordeste 66 Nordeste 0 -- -- 52
2019-11-12 01:00:00 6.2 32 Nordeste 64 Nordeste 0 -- -- 54
2019-11-12 00:00:00 6.3 30 Nordeste 52 Nordeste 0 -- -- 65
2019-11-11 23:00:00 6.5 17 Norte 48 Noroeste 0 -- -- 65
2019-11-11 22:00:00 6.9 8 Noroeste 43 Norte 0 -- -- 71
2019-11-11 21:00:00 6.5 8 Sudoeste 23 Sudoeste 0 -- -- 77
2019-11-11 20:00:00 6.2 12 Sudoeste 26 Sudoeste 0 -- -- 78
2019-11-11 19:00:00 6.2 9 Sudoeste 41 Nordeste 0 -- -- 76
2019-11-11 18:00:00 6.7 16 Nordeste 68 Nordeste 0 -- -- 75
2019-11-11 17:00:00 8 29 Nordeste 60 Nordeste 0 -- -- 69
2019-11-11 16:00:00 8.6 33 Nordeste 79 Nordeste 0 -- -- 57
2019-11-11 15:00:00 8.1 48 Nordeste 80 Nordeste 0 -- -- 52
2019-11-11 14:00:00 8.1 48 Nordeste 74 Nordeste 0 -- -- 37
2019-11-11 13:00:00 8.5 38 Nordeste 58 Nordeste 0 -- -- 24
2019-11-11 12:00:00 6.3 15 Norte 29 Noroeste 0 -- -- 39
2019-11-11 11:00:00 6.1 17 Norte 25 Norte 0 -- -- 39
2019-11-11 10:00:00 4.9 5 Oeste 29 Nordeste 0 -- -- 37
2019-11-11 09:00:00 2.6 5 Sudoeste 13 Sur 0 -- -- 49
2019-11-11 08:00:00 0.9 3 Sur 20 Oeste 0 -- -- 64
2019-11-11 07:00:00 0.8 10 Nordeste 37 Sudeste 0 -- -- 70
2019-11-11 06:00:00 1 14 Este 46 Nordeste 0 -- -- 72
2019-11-11 05:00:00 1.2 20 Este 62 Nordeste 0 -- -- 71
2019-11-11 04:00:00 1.3 37 Este 66 Nordeste 0 -- -- 68
2019-11-11 03:00:00 1.4 32 Este 76 Nordeste 0 -- -- 71
2019-11-11 02:00:00 1.8 47 Este 76 Nordeste 0 -- -- 69
2019-11-11 01:00:00 1.9 44 Este 73 Nordeste 0 -- -- 67
2019-11-11 00:00:00 2 45 Este 76 Este 0 -- -- 72